LiveATC.Net - Listen to live air traffic control over the Internet!


ICAO: EFKU  IATA: KUO   Airport: Kuopio Airport
City: Siilinjarvi
Country: Finland   Continent: Europe
EFKU METAR Weather: EFKU 220850Z 33018KT 9999 BKN020 M02/M06 Q0999
EFKU Flight Activity (FlightAware)

EFKU Tower/Approach
Feed Status: DOWN
Last heard on: 2020-01-11 14:34:05 (10 days 18 hours 52 minutes ago)
Archive Access: EFKU Tower/Approach
FacilityFrequency
Kuopio Approach130.600
Kuopio Tower120.150

NOTICE

Unauthorized use prohibited. See LiveATC.net Terms of Service


Airport/ARTCC Code
Frequency Search
(e.g., 124.400, 128.75)
Site-wide search
 


Browse Feeds
Top 50 Feeds
Coverage Map
Bad Weather Areas

LiveATC FAQ
Offer LiveATC feed
Contact LiveATC.net
Press Inquiries

LiveATC on iPhone
LiveATC on Android

Windows Phone
Windows 8/10

LiveATC Mobile
(Mobile browser)

ATC Audio Archives
Interesting Recordings

LiveATC Forums


Home Page
About LiveATC.net
Make a Donation
Terms of Use
Privacy Policy

Canadian Air Freqs

AIRMETs/SIGMETs

FAA Airport Status
Nat'l Airspace Status
Arrival Demand Charts


Server Software By:
Icecast.org
Liquidsoap